Regional Weather Roundup
Issued by NWS

Home | Current Version | Previous Version | Text Only | Print | Product List | Glossary On
Versions: 1 2 3 4 5 6 7 8 9 10 11 12 13 14 15 16 17 18 19 20 21 22 23 24 25 26 27 28 29 30 31 32 33 34 35 36 37 38 39 40 41 42 43 44 45 46 47 48 49 50
000
ASUS46 KSEW 120910
RWRWA

WASHINGTON REGIONAL WEATHER ROUNDUP
NATIONAL WEATHER SERVICE SEATTLE WA
200 AM PDT SAT JUL 12 2014

NOTE:"FAIR" INDICATES FEW OR NO CLOUDS BELOW 12,000 FEET WITH NO
SIGNIFICANT WEATHER AND/OR OBSTRUCTIONS TO VISIBILITY.

WAZ505-507>509-121000-
SEATTLE, TACOMA, EVERETT, AND VICINITY

CITY           SKY/WX    TMP DP  RH WIND       PRES   REMARKS
EVERETT        PTCLDY    67  53  61 E5        30.04R
BOEING FIELD   PTCLDY    72  55  55 CALM      30.01R
RENTON         PTCLDY    67  60  78 CALM      30.01R
SEATAC AIRPORT PTCLDY    68  56  65 CALM      30.03R
JBLM-MCCHORD   PTCLDY    63  57  80 SE2       30.02S
PUYALLUP       FAIR      61  59  94 CALM      30.04R
JBLM-FT LEWIS  PTCLDY    67  55  64 W2        30.02S
TACOMA NARROWS PTCLDY    67  56  67 CALM      30.02S
$$

WAZ001-503-506-510-514-515-121000-
NORTH INTERIOR

CITY           SKY/WX    TMP DP  RH WIND       PRES   REMARKS
BELLINGHAM     CLEAR     60  57  89 CALM      30.01R
FRIDAY HARBOR  CLEAR     52  50  93 S3        30.01S
EASTSOUND      CLEAR     59  54  82 CALM      29.98S
PORT ANGELES   CLEAR     57  54  89 W5        30.02S
NAS WHIDBEY    PTCLDY    60  52  74 SE5       30.02F
BURLINGTON     CLEAR     61  55  82 CALM      30.03S
$$

WAZ020-022-039-040-504-511-512-121000-
SOUTHWEST INTERIOR

CITY           SKY/WX    TMP DP  RH WIND       PRES   REMARKS
SHELTON        PTCLDY    57  53  86 W6        30.01R
OLYMPIA        CLEAR     61  54  77 CALM      30.02S
CHEHALIS       FAIR      59  57  94 CALM      30.03R
KELSO          CLOUDY    61  55  82 N5        30.07S
VANCOUVER      MOCLDY    69  58  67 CALM      30.00R
SCAPPOOSE, OR  MOCLDY    62  59  90 CALM      30.00S
PORTLAND, OR   MOCLDY    69  61  75 W3        30.01R
$$

WAZ021-516-517-121000-
WASHINGTON COAST

CITY           SKY/WX    TMP DP  RH WIND       PRES   REMARKS
FORKS          FOG       56  56 100 CALM      30.04F VSB 1/2
HOQUIAM        CLOUDY    57  56  96 CALM      30.04F FOG
ASTORIA, OR    CLOUDY    57  56  96 SW3       30.05R FOG
$$

WAZ019-023-024-040-518-519-121000-
CASCADE MOUNTAINS AND COLUMBIA GORGE

CITY           SKY/WX    TMP DP  RH WIND       PRES   REMARKS
STAMPEDE PASS  NOT AVBL
TROUTDALE, OR  MOCLDY    68  62  81 CALM      29.99S
THE DALLES, OR MOCLDY    75  51  43 NW12      29.94S
$$

WAZ026-027-041>044-520-521-121000-
EAST SLOPES

CITY           SKY/WX    TMP DP  RH WIND       PRES   REMARKS
OMAK           CLEAR     72  35  25 N10       30.01R
WENATCHEE      CLEAR     77  47  34 W8        29.98S
ELLENSBURG     CLEAR     67  47  48 CALM      30.02S
YAKIMA         PTCLDY    65  51  60 W6        29.97S
$$

WAZ028-034-035-121000-
COLUMBIA BASIN

CITY           SKY/WX    TMP DP  RH WIND       PRES   REMARKS
EPHRATA        CLEAR     75  35  23 NW8       29.97R
MOSES LAKE     PTCLDY    71  43  36 S3        29.97R
HANFORD        NOT AVBL
PASCO          MOCLDY    66  55  67 N5        29.93R
HERMISTON, OR  MOCLDY    73  41  31 SW5       29.94S
$$

WAZ036>038-121000-
NORTHEAST WASHINGTON

CITY           SKY/WX    TMP DP  RH WIND       PRES   REMARKS
SPOKANE GEIGER PTCLDY    73  46  38 E6        30.04S
SPOKANE FELTS  CLEAR     64  49  57 NE3       30.04R
FAIRCHILD AFB  CLEAR     63  44  49 W5        30.06R
COEURDALENE,ID CLEAR     63  54  72 SE7       30.05R
DEER PARK      CLEAR     61  45  55 NE3       30.04S
$$

WAZ029>033-121000-
SOUTHEAST WASHINGTON

CITY           SKY/WX    TMP DP  RH WIND       PRES   REMARKS
PULLMAN        CLEAR     54  45  71 CALM      30.06S
LEWISTON, ID   CLEAR     72  39  30 S3        29.98S
WALLA WALLA    MOCLDY    74  44  34 CALM      29.97R
PENDLETON, OR  MOCLDY    71  39  31 SE8       29.98S
$$



USA.gov is the U.S. government's official web portal to all federal, state and local government web resources and services.